Simultaneous Nadir Overpasses (SNOs) Predictions

Prediction of SNOs between AQUA and NOAA-19 Satellite Orbit:

Table of predicted SNOs for the next 14.0 days since TLE Epoch: 6/8/2017
Index Date (AQUA) Time (AQUA) Lat,Lon (AQUA) SZA (AQUA ) Date (NOAA-19) Time (NOAA-19) Lat,Lon (NOAA-19) SZA (NOAA-19 ) Distance(km) Time Diff (sec)
1 06/09/2017 02:28:39 -80.94, -77.44 119.76 06/09/2017 02:28:45 -80.95, -77.36 119.76 1.79 6
2 06/11/2017 08:02:23 80.95, 19.03 60.11 06/11/2017 08:02:33 80.96, 18.90 60.12 2.29 10
3 06/13/2017 13:36:06 -80.96, 115.46 119.99 06/13/2017 13:36:24 -80.96, 115.37 120.00 1.74 18
4 06/15/2017 18:20:22 -80.95, 44.57 120.11 06/15/2017 18:19:12 -80.96, 44.70 120.09 2.39 70
5 06/15/2017 19:09:49 80.95,-147.85 59.90 06/15/2017 19:10:11 80.95,-147.67 59.88 3.21 22
6 06/17/2017 23:54:05 80.94, 141.20 59.83 06/17/2017 23:53:01 80.96, 141.08 59.88 2.38 64
7 06/18/2017 00:43:32 -80.96, -51.39 120.13 06/18/2017 00:44:01 -80.96, -51.28 120.16 2.01 29
8 06/20/2017 05:27:48 -80.95,-122.33 120.17 06/20/2017 05:26:50 -80.96,-122.39 120.14 1.20 58
9 06/20/2017 06:17:15 80.96, 45.17 59.85 06/20/2017 06:17:50 80.96, 45.28 59.82 1.99 35
10 06/22/2017 11:01:31 80.96, -25.82 59.86 06/22/2017 11:00:39 80.96, -25.66 59.86 2.95 52




NCC Satellite Simultaneous Nadir Overpasses (SNOs) Prediction Service
